�������l�o���
Date,Time,MP-1(��Sv/h),MP-2(��Sv/h),MP-3(��Sv/h),MP-4(��Sv/h),MP-5(��Sv/h),MP-6(��Sv/h),MP-7(��Sv/h),MP-8(��Sv/h),����,����(m/s),���J
2022/06/13,00:00,0.544,0.792,0.508,0.966,0.660,0.336,0.573,0.546,�k��,6.2,��
2022/06/13,00:10,0.544,0.792,0.508,0.966,0.660,0.336,0.574,0.545,�k��,8.2,��
2022/06/13,00:20,0.542,0.791,0.509,0.964,0.659,0.334,0.573,0.545,�k��,6.1,��
2022/06/13,00:30,0.543,0.793,0.510,0.967,0.661,0.336,0.575,0.545,���k��,6.5,��
2022/06/13,00:40,0.543,0.791,0.509,0.966,0.660,0.336,0.574,0.546,�k��,5.5,��
2022/06/13,00:50,0.542,0.791,0.509,0.965,0.661,0.336,0.573,0.545,�k��,4.0,��
2022/06/13,01:00,0.543,0.790,0.509,0.967,0.661,0.336,0.574,0.545,�k�k��,4.2,��
2022/06/13,01:10,0.545,0.791,0.509,0.964,0.662,0.336,0.576,0.545,�k�k��,3.9,��
2022/06/13,01:20,0.542,0.792,0.509,0.968,0.662,0.337,0.575,0.547,�k�k��,4.1,��
2022/06/13,01:30,0.544,0.791,0.510,0.967,0.661,0.336,0.575,0.546,�k�k��,5.5,��
2022/06/13,01:40,0.543,0.793,0.508,0.968,0.661,0.337,0.577,0.545,�k�k��,5.1,��
2022/06/13,01:50,0.543,0.790,0.510,0.970,0.662,0.336,0.576,0.545,�k�k��,5.3,��
2022/06/13,02:00,0.543,0.791,0.509,0.969,0.659,0.337,0.575,0.546,�k�k��,5.0,��
2022/06/13,02:10,0.544,0.793,0.508,0.968,0.662,0.336,0.576,0.547,�k�k��,6.3,��
2022/06/13,02:20,0.544,0.792,0.510,0.967,0.660,0.335,0.576,0.546,�k�k��,6.7,��
2022/06/13,02:30,0.544,0.794,0.510,0.969,0.662,0.336,0.577,0.548,�k�k��,5.6,��
2022/06/13,02:40,0.544,0.794,0.508,0.970,0.660,0.336,0.578,0.547,�k��,6.2,��
2022/06/13,02:50,0.544,0.793,0.508,0.967,0.663,0.336,0.576,0.547,�k��,3.5,��
2022/06/13,03:00,0.545,0.794,0.509,0.967,0.662,0.337,0.577,0.545,���k��,3.7,��
2022/06/13,03:10,0.543,0.794,0.510,0.969,0.664,0.336,0.576,0.546,��,1.5,��
2022/06/13,03:20,0.544,0.794,0.510,0.969,0.662,0.337,0.576,0.547,�k�k��,0.8,��
2022/06/13,03:30,0.544,0.794,0.510,0.968,0.662,0.336,0.576,0.546,�k��,0.9,��
2022/06/13,03:40,0.543,0.792,0.508,0.967,0.663,0.337,0.577,0.546,�k�k��,3.3,��
2022/06/13,03:50,0.544,0.792,0.509,0.967,0.662,0.335,0.576,0.546,�k,4.1,��
2022/06/13,04:00,0.543,0.792,0.510,0.968,0.662,0.336,0.576,0.548,�k,4.3,��
2022/06/13,04:10,0.543,0.794,0.509,0.970,0.664,0.335,0.576,0.546,�k,3.7,��
2022/06/13,04:20,0.544,0.793,0.508,0.969,0.661,0.335,0.576,0.546,�k,4.1,��
2022/06/13,04:30,0.544,0.793,0.510,0.969,0.663,0.336,0.576,0.547,�k,4.9,��
2022/06/13,04:40,0.543,0.793,0.510,0.967,0.667,0.334,0.576,0.546,�k�k��,4.1,��
2022/06/13,04:50,0.546,0.793,0.509,0.970,0.662,0.336,0.575,0.546,�k�k��,4.0,��
2022/06/13,05:00,0.543,0.793,0.509,0.968,0.665,0.335,0.575,0.546,�k��,3.4,��
2022/06/13,05:10,0.543,0.793,0.510,0.970,0.663,0.335,0.575,0.546,�k�k��,4.3,��
2022/06/13,05:20,0.544,0.793,0.510,0.970,0.663,0.335,0.576,0.546,�k��,5.7,��
2022/06/13,05:30,0.545,0.796,0.511,0.970,0.665,0.337,0.575,0.547,�k�k��,5.5,��
2022/06/13,05:40,0.545,0.796,0.510,0.970,0.663,0.335,0.576,0.545,�k�k��,4.8,��
2022/06/13,05:50,0.544,0.794,0.509,0.969,0.666,0.337,0.576,0.547,�k�k��,4.8,��
2022/06/13,06:00,0.544,0.796,0.511,0.968,0.665,0.335,0.575,0.546,�k,4.2,��
2022/06/13,06:10,0.544,0.797,0.509,0.970,0.665,0.336,0.576,0.548,�k,3.1,��
2022/06/13,06:20,0.546,0.796,0.511,0.971,0.666,0.336,0.576,0.547,�k�k��,1.2,��
2022/06/13,06:30,0.546,0.793,0.510,0.972,0.667,0.335,0.575,0.545,�k�k��,2.0,��
2022/06/13,06:40,0.545,0.794,0.509,0.971,0.666,0.336,0.578,0.546,�k�k��,5.6,��
2022/06/13,06:50,0.544,0.793,0.510,0.970,0.665,0.336,0.577,0.547,�k�k��,6.5,��
2022/06/13,07:00,0.544,0.794,0.509,0.971,0.664,0.334,0.577,0.547,�k�k��,6.5,��
2022/06/13,07:10,0.543,0.794,0.510,0.970,0.665,0.334,0.576,0.547,�k�k��,7.5,��
2022/06/13,07:20,0.544,0.794,0.511,0.971,0.667,0.334,0.576,0.548,�k�k��,8.0,��
2022/06/13,07:30,0.544,0.795,0.511,0.970,0.668,0.334,0.575,0.548,�k�k��,7.4,��
2022/06/13,07:40,0.546,0.797,0.510,0.971,0.667,0.336,0.576,0.546,�k�k��,7.7,��
2022/06/13,07:50,0.545,0.795,0.511,0.974,0.668,0.335,0.575,0.546,�k�k��,8.5,��
2022/06/13,08:00,0.545,0.795,0.510,0.973,0.668,0.335,0.576,0.546,�k�k��,8.1,��
2022/06/13,08:10,0.545,0.796,0.513,0.971,0.670,0.334,0.576,0.545,�k�k��,8.3,��
2022/06/13,08:20,0.547,0.796,0.511,0.974,0.669,0.335,0.575,0.545,�k�k��,8.2,��
2022/06/13,08:30,0.546,0.794,0.512,0.975,0.669,0.335,0.574,0.545,�k�k��,7.7,��
2022/06/13,08:40,0.546,0.797,0.512,0.973,0.668,0.336,0.576,0.545,�k�k��,9.8,��
2022/06/13,08:50,0.548,0.795,0.510,0.975,0.669,0.334,0.574,0.547,�k�k��,8.5,��
2022/06/13,09:00,0.547,0.797,0.510,0.975,0.671,0.335,0.575,0.546,�k�k��,8.5,��
2022/06/13,09:10,0.547,0.796,0.514,0.975,0.670,0.335,0.575,0.546,�k�k��,8.2,��
2022/06/13,09:20,0.547,0.798,0.511,0.976,0.669,0.333,0.575,0.547,�k�k��,8.6,��
2022/06/13,09:30,0.547,0.798,0.512,0.975,0.669,0.335,0.574,0.547,�k�k��,8.9,��
2022/06/13,09:40,0.548,0.801,0.513,0.975,0.669,0.336,0.575,0.546,�k�k��,8.0,��
2022/06/13,09:50,0.549,0.800,0.512,0.975,0.671,0.336,0.575,0.546,�k�k��,6.7,��
2022/06/13,10:00,0.549,0.800,0.512,0.976,0.672,0.336,0.575,0.546,�k��,6.8,��
2022/06/13,10:10,0.550,0.800,0.513,0.975,0.671,0.335,0.577,0.547,�k�k��,6.2,��
2022/06/13,10:20,0.551,0.800,0.513,0.975,0.674,0.336,0.575,0.545,�k�k��,6.8,��
2022/06/13,10:30,0.550,0.802,0.515,0.974,0.672,0.337,0.576,0.546,�k�k��,6.3,��
2022/06/13,10:40,0.550,0.802,0.515,0.975,0.674,0.336,0.575,0.548,�k�k��,5.9,��
2022/06/13,10:50,0.550,0.800,0.514,0.977,0.675,0.335,0.575,0.548,�k�k��,5.9,��
2022/06/13,11:00,0.550,0.800,0.513,0.976,0.674,0.337,0.576,0.547,�k�k��,7.2,��
2022/06/13,11:10,0.549,0.803,0.516,0.976,0.675,0.337,0.577,0.549,�k�k��,6.8,��
2022/06/13,11:20,0.552,0.802,0.514,0.974,0.676,0.336,0.578,0.547,�k�k��,7.6,��
2022/06/13,11:30,0.552,0.805,0.515,0.974,0.676,0.337,0.575,0.548,�k�k��,6.2,��
2022/06/13,11:40,0.551,0.804,0.514,0.975,0.675,0.336,0.576,0.548,�k�k��,7.0,��
2022/06/13,11:50,0.553,0.804,0.514,0.974,0.677,0.337,0.577,0.548,�k�k��,6.6,��
2022/06/13,12:00,0.552,0.808,0.514,0.973,0.677,0.338,0.575,0.549,�k�k��,7.4,��
2022/06/13,12:10,0.551,0.807,0.513,0.977,0.678,0.336,0.575,0.549,�k�k��,7.6,��
2022/06/13,12:20,0.553,0.806,0.513,0.976,0.678,0.337,0.575,0.551,�k�k��,9.6,��
2022/06/13,12:30,0.553,0.806,0.514,0.978,0.677,0.337,0.577,0.549,�k�k��,9.3,��
2022/06/13,12:40,0.553,0.810,0.514,0.976,0.677,0.338,0.578,0.549,�k�k��,9.7,��
2022/06/13,12:50,0.552,0.807,0.514,0.976,0.679,0.337,0.577,0.550,�k��,9.7,��
2022/06/13,13:00,0.553,0.809,0.513,0.979,0.679,0.337,0.576,0.550,�k�k��,8.6,��
2022/06/13,13:10,0.553,0.808,0.515,0.979,0.679,0.339,0.577,0.549,�k�k��,8.3,��
2022/06/13,13:20,0.553,0.809,0.517,0.976,0.681,0.338,0.577,0.551,�k��,5.4,��
2022/06/13,13:30,0.554,0.809,0.516,0.977,0.680,0.337,0.577,0.549,�k��,6.7,��
2022/06/13,13:40,0.554,0.808,0.516,0.978,0.679,0.337,0.577,0.551,�k��,7.6,��
2022/06/13,13:50,0.552,0.808,0.516,0.979,0.681,0.338,0.578,0.550,�k��,7.7,��
2022/06/13,14:00,0.554,0.808,0.515,0.980,0.680,0.337,0.577,0.551,�k��,6.7,��
2022/06/13,14:10,0.555,0.810,0.517,0.980,0.680,0.338,0.578,0.550,�k��,6.8,��
2022/06/13,14:20,0.552,0.809,0.517,0.979,0.681,0.337,0.578,0.549,�k��,7.2,��
2022/06/13,14:30,0.555,0.807,0.518,0.978,0.681,0.338,0.577,0.550,���k��,7.7,��
2022/06/13,14:40,0.554,0.807,0.516,0.978,0.681,0.338,0.577,0.549,���k��,8.1,��
2022/06/13,14:50,0.556,0.810,0.516,0.980,0.681,0.337,0.577,0.550,���k��,7.4,��
2022/06/13,15:00,0.553,0.812,0.517,0.979,0.681,0.337,0.577,0.549,���k��,6.6,��
2022/06/13,15:10,0.554,0.810,0.517,0.980,0.682,0.338,0.578,0.551,���k��,5.2,��
2022/06/13,15:20,0.550,0.810,0.516,0.978,0.682,0.338,0.577,0.550,�k��,2.8,��
2022/06/13,15:30,0.549,0.811,0.517,0.979,0.683,0.338,0.577,0.551,�k�k��,2.2,��
2022/06/13,15:40,0.549,0.811,0.516,0.981,0.682,0.337,0.578,0.549,�k�k��,3.6,��
2022/06/13,15:50,0.548,0.809,0.517,0.982,0.683,0.338,0.578,0.550,�k�k��,4.5,��
2022/06/13,16:00,0.549,0.810,0.516,0.980,0.682,0.337,0.576,0.549,�k,3.2,��
2022/06/13,16:10,0.550,0.811,0.515,0.981,0.683,0.338,0.577,0.550,�k,4.1,��
2022/06/13,16:20,0.550,0.812,0.516,0.981,0.682,0.336,0.579,0.551,�k,3.7,��
2022/06/13,16:30,0.550,0.814,0.516,0.982,0.682,0.337,0.578,0.550,�k,3.8,��
2022/06/13,16:40,0.550,0.814,0.516,0.981,0.679,0.337,0.578,0.549,�k,3.4,��
2022/06/13,16:50,0.550,0.812,0.516,0.981,0.681,0.338,0.579,0.549,�k,3.4,��
2022/06/13,17:00,0.550,0.814,0.516,0.982,0.682,0.339,0.577,0.551,�k�k��,3.5,��
2022/06/13,17:10,0.552,0.815,0.516,0.981,0.682,0.337,0.579,0.550,�k�k��,3.3,��
2022/06/13,17:20,0.550,0.814,0.515,0.981,0.682,0.336,0.578,0.551,�k�k��,2.6,��
2022/06/13,17:30,0.552,0.816,0.516,0.982,0.683,0.338,0.578,0.552,�k,2.6,��
2022/06/13,17:40,0.550,0.815,0.514,0.984,0.682,0.338,0.579,0.550,�k�k��,2.3,��
2022/06/13,17:50,0.552,0.816,0.516,0.985,0.684,0.338,0.578,0.552,�k��,2.2,��
2022/06/13,18:00,0.553,0.817,0.517,0.984,0.685,0.340,0.577,0.550,�k�k��,2.0,��
2022/06/13,18:10,0.552,0.815,0.516,0.983,0.685,0.339,0.578,0.551,�k�k��,1.4,��
2022/06/13,18:20,0.551,0.816,0.518,0.985,0.685,0.339,0.577,0.551,�k�k��,1.7,��
2022/06/13,18:30,0.554,0.816,0.519,0.982,0.686,0.339,0.578,0.551,�k�k��,1.2,��
2022/06/13,18:40,0.554,0.815,0.520,0.983,0.686,0.338,0.580,0.551,�k��,1.2,��
2022/06/13,18:50,0.553,0.816,0.518,0.984,0.686,0.339,0.579,0.552,�k�k��,1.5,��
2022/06/13,19:00,0.554,0.816,0.518,0.986,0.686,0.339,0.580,0.550,�k�k��,2.0,��
2022/06/13,19:10,0.552,0.815,0.519,0.985,0.684,0.339,0.580,0.552,�k�k��,2.0,��
2022/06/13,19:20,0.553,0.816,0.518,0.984,0.685,0.339,0.581,0.552,�k�k��,1.7,��
2022/06/13,19:30,0.554,0.813,0.518,0.986,0.688,0.337,0.581,0.551,�k�k��,2.2,��
2022/06/13,19:40,0.554,0.815,0.519,0.984,0.685,0.339,0.580,0.551,�k,2.0,��
2022/06/13,19:50,0.555,0.815,0.519,0.985,0.686,0.338,0.582,0.552,�k,3.8,��
2022/06/13,20:00,0.552,0.816,0.518,0.984,0.685,0.339,0.583,0.551,�k�k��,5.0,��
2022/06/13,20:10,0.554,0.815,0.518,0.986,0.685,0.338,0.581,0.551,�k�k��,4.8,��
2022/06/13,20:20,0.553,0.815,0.518,0.983,0.686,0.337,0.579,0.552,�k�k��,3.5,��
2022/06/13,20:30,0.552,0.816,0.518,0.985,0.686,0.338,0.580,0.552,�k�k��,4.3,��
2022/06/13,20:40,0.553,0.817,0.517,0.984,0.685,0.339,0.582,0.551,�k�k��,3.4,��
2022/06/13,20:50,0.552,0.817,0.516,0.985,0.686,0.338,0.581,0.551,�k,4.5,��
2022/06/13,21:00,0.552,0.816,0.519,0.984,0.688,0.338,0.580,0.550,�k,4.0,�L
2022/06/13,21:10,0.553,0.816,0.517,0.983,0.686,0.339,0.579,0.552,�k,4.0,��
2022/06/13,21:20,0.553,0.815,0.518,0.983,0.687,0.338,0.579,0.551,�k,3.4,��
2022/06/13,21:30,0.554,0.815,0.517,0.984,0.687,0.338,0.578,0.551,�k,3.0,��
2022/06/13,21:40,0.555,0.814,0.517,0.984,0.686,0.337,0.580,0.552,�k�k��,2.3,��
2022/06/13,21:50,0.553,0.817,0.519,0.984,0.687,0.337,0.580,0.551,�k�k��,2.9,��
2022/06/13,22:00,0.553,0.816,0.518,0.982,0.685,0.339,0.580,0.551,�k�k��,2.6,��
2022/06/13,22:10,0.553,0.818,0.518,0.983,0.686,0.338,0.580,0.552,�k�k��,2.6,��
2022/06/13,22:20,0.553,0.817,0.518,0.984,0.686,0.339,0.580,0.552,�k�k��,2.6,��
2022/06/13,22:30,0.554,0.816,0.518,0.984,0.686,0.337,0.580,0.551,�k�k��,2.6,��
2022/06/13,22:40,0.555,0.816,0.517,0.985,0.687,0.338,0.580,0.552,�k�k��,2.6,��
2022/06/13,22:50,0.553,0.815,0.517,0.985,0.686,0.339,0.579,0.551,�k�k��,2.6,��
2022/06/13,23:00,0.552,0.817,0.516,0.984,0.686,0.338,0.579,0.551,�k,1.9,�L
2022/06/13,23:10,0.554,0.817,0.519,0.984,0.685,0.339,0.578,0.550,�k,2.6,�L
2022/06/13,23:20,0.555,0.815,0.518,0.983,0.687,0.337,0.579,0.552,�k�k��,4.3,�L
2022/06/13,23:30,0.553,0.815,0.517,0.986,0.687,0.339,0.579,0.552,�k�k��,6.2,�L
2022/06/13,23:40,0.553,0.814,0.517,0.984,0.686,0.339,0.579,0.550,�k�k��,5.2,�L
2022/06/13,23:50,0.555,0.816,0.518,0.985,0.686,0.338,0.579,0.552,�k,4.9,�L
